Location: Palomar Mountain Lodge
(33.3110°N, 116.8495°W)
Time: 16:47:18
(UTC-07:00)

Meteor 2-13 Rocket - Pass Details

Date: 14 June 2018
Orbit: 935 x 959 km, 82.5° (Epoch: 19 October)

Event Time Altitude Azimuth Distance (km) Brightness Sun altitude
Rises 23:16:14 0° 356° (N) 3,597 8.5 -29.3°
Reaches altitude 10° 23:18:44 10° 358° (N) 2,651 7.6 -29.5°
Enters shadow 23:24:23 70° 51° (NE) 996 4.4 -30.0°
